Location: Shenandoah County Park
(38.9356°N, 78.4524°W)
Time: 00:43:47
(UTC-05:00)

A-11 Canister half - Pass Details

Date: 05 December 2023
Orbit: 1526 x 1682 km, 47.3° (Epoch: 01 March)

Event Time Altitude Azimuth Distance (km) Brightness Sun altitude
Rises 18:55:52 0° 234° (SW) 4,909 12.7 -23.5°
Reaches altitude 10° 18:59:01 10° 234° (SW) 3,931 12.0 -24.1°
Maximum altitude 19:09:10 85° 148° (SSE) 1,687 9.0 -26.1°
Enters shadow 19:13:13 44° 63° (ENE) 2,203 9.3 -26.9°
